Location: الشقيري
(17.1356°N, 42.8272°E)
Time: 14:05:36
(UTC+00:00)

N. Korean satellite - Pass Details

Date: 22 November 2019
Orbit: 456 x 506 km, 97.2° (Epoch: 09 December)

Event Time Altitude Azimuth Distance (km) Brightness Sun altitude
Rises 15:20:09 0° 205° (SSW) 2,534 10.9 -11.6°
Reaches altitude 10° 15:23:08 10° 234° (SW) 1,669 10.5 -12.3°
Maximum altitude 15:24:52 13° 263° (W) 1,493 10.3 -12.6°
Drops below altitude 10° 15:26:38 10° 292° (WNW) 1,684 10.1 -13.0°
Sets 15:29:40 0° 321° (NW) 2,579 10.6 -13.7°
